Time,TemperatureF,DewpointF,PressureIn,WindDirection,WindDirectionDegrees,WindSpeedMPH,WindSpeedGustMPH,Humidity,HourlyPrecipIn,Conditions,Clouds,dailyrainin,SoftwareType,DateUTC
2013-05-15 00:00:00,57.2,50.1,30.07,ESE,110,0.0,2.0,77,0.00,,,0.00,Wunderground v.1.15,2013-05-15 04:00:00,
2013-05-15 00:05:00,56.9,50.5,30.07,ESE,108,0.0,2.0,79,0.00,,,0.00,Wunderground v.1.15,2013-05-15 04:05:00,
2013-05-15 00:15:00,56.1,49.7,30.07,ESE,110,0.0,2.0,79,0.00,,,0.00,Wunderground v.1.15,2013-05-15 04:15:00,
2013-05-15 00:20:00,55.9,50.2,30.07,ESE,110,0.0,2.0,81,0.00,,,0.00,Wunderground v.1.15,2013-05-15 04:20:00,
2013-05-15 00:25:00,55.8,50.1,30.07,ESE,110,0.0,2.0,81,0.00,,,0.00,Wunderground v.1.15,2013-05-15 04:25:00,
2013-05-15 00:35:00,55.6,49.9,30.07,ESE,110,0.0,2.0,81,0.00,,,0.00,Wunderground v.1.15,2013-05-15 04:35:00,
2013-05-15 00:45:00,55.4,50.0,30.07,ESE,110,0.0,2.0,82,0.00,,,0.00,Wunderground v.1.15,2013-05-15 04:45:00,
2013-05-15 00:50:00,55.3,49.9,30.07,West,273,0.0,2.0,82,0.00,,,0.00,Wunderground v.1.15,2013-05-15 04:50:00,
2013-05-15 00:55:00,55.4,49.7,30.07,West,273,0.0,2.0,81,0.00,,,0.00,Wunderground v.1.15,2013-05-15 04:55:00,
2013-05-15 01:40:00,55.5,50.1,30.06,NNW,334,0.0,2.0,82,0.00,,,0.00,Wunderground v.1.15,2013-05-15 05:40:00,
2013-05-15 01:45:00,55.8,49.7,30.06,NNW,336,0.0,2.0,80,0.00,,,0.00,Wunderground v.1.15,2013-05-15 05:45:00,
2013-05-15 01:50:00,56.3,49.5,30.06,NNW,335,0.0,2.0,78,0.00,,,0.00,Wunderground v.1.15,2013-05-15 05:50:00,
2013-05-15 01:55:00,57.0,49.9,30.06,NNW,336,0.0,2.0,77,0.00,,,0.00,Wunderground v.1.15,2013-05-15 05:55:00,
2013-05-15 02:00:00,57.8,49.9,30.06,NNW,340,0.0,2.0,75,0.00,,,0.00,Wunderground v.1.15,2013-05-15 06:00:00,
2013-05-15 02:05:00,58.6,50.0,30.06,NNW,340,0.0,2.0,73,0.00,,,0.00,Wunderground v.1.15,2013-05-15 06:05:00,
2013-05-15 02:10:00,58.8,49.8,30.06,NNW,340,0.0,2.0,72,0.00,,,0.00,Wunderground v.1.15,2013-05-15 06:10:00,
2013-05-15 02:35:00,59.3,50.3,30.05,North,356,0.0,2.0,72,0.00,,,0.00,Wunderground v.1.15,2013-05-15 06:35:00,
2013-05-15 02:40:00,59.3,50.3,30.05,North,9,1.0,2.0,72,0.00,,,0.00,Wunderground v.1.15,2013-05-15 06:40:00,
2013-05-15 02:50:00,59.4,50.4,30.06,NNW,333,1.0,1.0,72,0.00,,,0.00,Wunderground v.1.15,2013-05-15 06:50:00,
2013-05-15 02:55:00,59.3,50.3,30.06,NNW,333,1.0,1.0,72,0.00,,,0.00,Wunderground v.1.15,2013-05-15 06:55:00,
2013-05-15 03:00:00,59.1,50.1,30.06,NNW,331,1.0,1.0,72,0.00,,,0.00,Wunderground v.1.15,2013-05-15 07:00:00,
2013-05-15 03:05:00,58.9,50.3,30.06,NNW,338,1.0,1.0,73,0.00,,,0.00,Wunderground v.1.15,2013-05-15 07:05:00,
2013-05-15 03:10:00,58.7,50.1,30.06,North,5,1.0,2.0,73,0.00,,,0.00,Wunderground v.1.15,2013-05-15 07:10:00,
2013-05-15 03:15:00,58.6,50.0,30.06,NNE,13,1.0,2.0,73,0.00,,,0.00,Wunderground v.1.15,2013-05-15 07:15:00,
2013-05-15 03:20:00,58.4,49.8,30.06,North,8,1.0,1.0,73,0.00,,,0.00,Wunderground v.1.15,2013-05-15 07:20:00,
2013-05-15 03:25:00,58.5,49.9,30.06,North,7,1.0,1.0,73,0.00,,,0.00,Wunderground v.1.15,2013-05-15 07:25:00,
2013-05-15 03:30:00,58.6,49.6,30.06,NNW,335,1.0,1.0,72,0.00,,,0.00,Wunderground v.1.15,2013-05-15 07:30:00,
2013-05-15 03:35:00,58.7,49.7,30.06,NNW,335,1.0,1.0,72,0.00,,,0.00,Wunderground v.1.15,2013-05-15 07:35:00,
2013-05-15 03:40:00,58.8,49.4,30.06,NNW,335,1.0,1.0,71,0.00,,,0.00,Wunderground v.1.15,2013-05-15 07:40:00,
2013-05-15 03:45:00,59.0,49.6,30.06,NNW,335,1.0,1.0,71,0.00,,,0.00,Wunderground v.1.15,2013-05-15 07:45:00,
2013-05-15 03:50:00,59.0,49.6,30.06,NNW,336,0.0,0.0,71,0.00,,,0.00,Wunderground v.1.15,2013-05-15 07:50:00,
2013-05-15 03:55:00,58.8,49.4,30.06,NNW,340,1.0,1.0,71,0.00,,,0.00,Wunderground v.1.15,2013-05-15 07:55:00,
2013-05-15 04:00:00,58.5,49.5,30.06,NNE,12,1.0,1.0,72,0.00,,,0.00,Wunderground v.1.15,2013-05-15 08:00:00,
2013-05-15 04:05:00,58.3,49.3,30.05,North,11,1.0,1.0,72,0.00,,,0.00,Wunderground v.1.15,2013-05-15 08:05:00,
2013-05-15 04:10:00,58.4,49.4,30.06,NW,309,1.0,2.0,72,0.00,,,0.00,Wunderground v.1.15,2013-05-15 08:10:00,
2013-05-15 04:15:00,58.5,49.5,30.06,ENE,77,1.0,2.0,72,0.00,,,0.00,Wunderground v.1.15,2013-05-15 08:15:00,
2013-05-15 04:20:00,58.7,49.7,30.05,NW,318,1.0,1.0,72,0.00,,,0.00,Wunderground v.1.15,2013-05-15 08:20:00,
2013-05-15 04:30:00,58.5,50.6,30.05,WNW,300,0.0,1.0,75,0.00,,,0.00,Wunderground v.1.15,2013-05-15 08:30:00,
2013-05-15 04:35:00,57.9,50.0,30.05,WSW,248,1.0,1.0,75,0.00,,,0.00,Wunderground v.1.15,2013-05-15 08:35:00,
2013-05-15 04:40:00,57.2,49.7,30.05,West,277,1.0,1.0,76,0.00,,,0.00,Wunderground v.1.15,2013-05-15 08:40:00,
2013-05-15 04:45:00,56.9,49.8,30.04,West,269,1.0,1.0,77,0.00,,,0.00,Wunderground v.1.15,2013-05-15 08:45:00,
2013-05-15 04:50:00,56.8,50.0,30.04,WSW,249,1.0,1.0,78,0.00,,,0.00,Wunderground v.1.15,2013-05-15 08:50:00,
2013-05-15 05:00:00,56.8,50.4,30.04,NW,305,0.0,0.0,79,0.00,,,0.00,Wunderground v.1.15,2013-05-15 09:00:00,
2013-05-15 05:05:00,57.0,50.5,30.04,WNW,295,0.0,1.0,79,0.00,,,0.00,Wunderground v.1.15,2013-05-15 09:05:00,
2013-05-15 05:10:00,57.2,50.7,30.05,WNW,294,1.0,1.0,79,0.00,,,0.00,Wunderground v.1.15,2013-05-15 09:10:00,
2013-05-15 05:20:00,57.3,50.1,30.05,WNW,293,0.0,0.0,77,0.00,,,0.00,Wunderground v.1.15,2013-05-15 09:20:00,
2013-05-15 05:25:00,57.6,50.4,30.05,WNW,294,0.0,0.0,77,0.00,,,0.00,Wunderground v.1.15,2013-05-15 09:25:00,
2013-05-15 05:30:00,57.8,50.6,30.05,WNW,293,0.0,0.0,77,0.00,,,0.00,Wunderground v.1.15,2013-05-15 09:30:00,
2013-05-15 05:40:00,57.8,50.3,30.05,WNW,294,0.0,0.0,76,0.00,,,0.00,Wunderground v.1.15,2013-05-15 09:40:00,
2013-05-15 05:50:00,57.4,49.9,30.05,WNW,294,0.0,0.0,76,0.00,,,0.00,Wunderground v.1.15,2013-05-15 09:50:00,
2013-05-15 05:55:00,57.4,49.9,30.06,WNW,294,0.0,0.0,76,0.00,,,0.00,Wunderground v.1.15,2013-05-15 09:55:00,
2013-05-15 06:00:00,57.4,50.2,30.06,WNW,293,0.0,0.0,77,0.00,,,0.00,Wunderground v.1.15,2013-05-15 10:00:00,
2013-05-15 06:05:00,57.4,50.2,30.05,WNW,294,0.0,0.0,77,0.00,,,0.00,Wunderground v.1.15,2013-05-15 10:05:00,
2013-05-15 06:10:00,57.4,50.2,30.05,WNW,294,0.0,0.0,77,0.00,,,0.00,Wunderground v.1.15,2013-05-15 10:10:00,
2013-05-15 06:15:00,57.3,50.1,30.05,WNW,293,0.0,0.0,77,0.00,,,0.00,Wunderground v.1.15,2013-05-15 10:15:00,
2013-05-15 06:20:00,57.2,50.4,30.05,WNW,293,0.0,0.0,78,0.00,,,0.00,Wunderground v.1.15,2013-05-15 10:20:00,
2013-05-15 06:30:00,57.2,50.4,30.05,WNW,293,0.0,0.0,78,0.00,,,0.00,Wunderground v.1.15,2013-05-15 10:30:00,
2013-05-15 06:35:00,57.1,50.6,30.05,WNW,294,0.0,0.0,79,0.00,,,0.00,Wunderground v.1.15,2013-05-15 10:35:00,
2013-05-15 06:40:00,57.3,50.8,30.05,WNW,293,0.0,0.0,79,0.00,,,0.00,Wunderground v.1.15,2013-05-15 10:40:00,
2013-05-15 06:45:00,57.4,50.6,30.05,WNW,293,0.0,0.0,78,0.00,,,0.00,Wunderground v.1.15,2013-05-15 10:45:00,
2013-05-15 06:50:00,57.5,50.7,30.06,WNW,293,0.0,0.0,78,0.00,,,0.00,Wunderground v.1.15,2013-05-15 10:50:00,
2013-05-15 07:10:00,57.8,51.3,30.06,West,274,0.0,0.0,79,0.00,,,0.00,Wunderground v.1.15,2013-05-15 11:10:00,
2013-05-15 07:15:00,57.8,51.0,30.06,West,272,0.0,0.0,78,0.00,,,0.00,Wunderground v.1.15,2013-05-15 11:15:00,
2013-05-15 07:20:00,57.9,51.1,30.06,West,271,0.0,0.0,78,0.00,,,0.00,Wunderground v.1.15,2013-05-15 11:20:00,
2013-05-15 07:25:00,57.9,51.4,30.07,West,271,0.0,0.0,79,0.00,,,0.00,Wunderground v.1.15,2013-05-15 11:25:00,
2013-05-15 07:30:00,58.0,51.2,30.07,West,270,0.0,0.0,78,0.00,,,0.00,Wunderground v.1.15,2013-05-15 11:30:00,
2013-05-15 07:35:00,58.2,51.4,30.07,West,270,0.0,0.0,78,0.00,,,0.00,Wunderground v.1.15,2013-05-15 11:35:00,
2013-05-15 07:40:00,58.3,51.5,30.07,West,270,0.0,0.0,78,0.00,,,0.00,Wunderground v.1.15,2013-05-15 11:40:00,
2013-05-15 07:50:00,58.6,51.4,30.07,West,270,0.0,0.0,77,0.00,,,0.00,Wunderground v.1.15,2013-05-15 11:50:00,
2013-05-15 07:55:00,58.8,51.6,30.07,West,269,0.0,1.0,77,0.00,,,0.00,Wunderground v.1.15,2013-05-15 11:55:00,
2013-05-15 08:00:00,59.2,52.0,30.07,West,270,0.0,0.0,77,0.00,,,0.00,Wunderground v.1.15,2013-05-15 12:00:00,
2013-05-15 08:10:00,59.9,52.3,30.07,SSW,192,0.0,0.0,76,0.00,,,0.00,Wunderground v.1.15,2013-05-15 12:10:00,
2013-05-15 08:15:00,60.2,52.2,30.07,WSW,246,0.0,0.0,75,0.00,,,0.00,Wunderground v.1.15,2013-05-15 12:15:00,
2013-05-15 08:20:00,60.5,52.5,30.07,WSW,245,0.0,0.0,75,0.00,,,0.00,Wunderground v.1.15,2013-05-15 12:20:00,
2013-05-15 08:25:00,60.9,52.9,30.07,WSW,248,0.0,0.0,75,0.00,,,0.00,Wunderground v.1.15,2013-05-15 12:25:00,
2013-05-15 08:30:00,61.3,52.9,30.07,WSW,248,0.0,0.0,74,0.00,,,0.00,Wunderground v.1.15,2013-05-15 12:30:00,
2013-05-15 08:35:00,61.7,53.3,30.08,West,260,0.0,0.0,74,0.00,,,0.00,Wunderground v.1.15,2013-05-15 12:35:00,
2013-05-15 08:40:00,62.2,53.4,30.08,West,262,0.0,0.0,73,0.00,,,0.00,Wunderground v.1.15,2013-05-15 12:40:00,
2013-05-15 08:45:00,62.5,53.7,30.08,West,271,0.0,0.0,73,0.00,,,0.00,Wunderground v.1.15,2013-05-15 12:45:00,
2013-05-15 08:50:00,62.9,54.1,30.08,WSW,250,0.0,0.0,73,0.00,,,0.00,Wunderground v.1.15,2013-05-15 12:50:00,
2013-05-15 08:55:00,63.3,54.5,30.08,West,266,0.0,0.0,73,0.00,,,0.00,Wunderground v.1.15,2013-05-15 12:55:00,
2013-05-15 09:00:00,63.6,54.4,30.09,West,271,0.0,0.0,72,0.00,,,0.00,Wunderground v.1.15,2013-05-15 13:00:00,
2013-05-15 09:05:00,64.0,54.8,30.08,West,269,0.0,0.0,72,0.00,,,0.00,Wunderground v.1.15,2013-05-15 13:05:00,
2013-05-15 09:10:00,64.3,54.7,30.08,West,270,0.0,0.0,71,0.00,,,0.00,Wunderground v.1.15,2013-05-15 13:10:00,
2013-05-15 09:20:00,65.3,55.3,30.09,West,272,1.0,1.0,70,0.00,,,0.00,Wunderground v.1.15,2013-05-15 13:20:00,
2013-05-15 09:30:00,66.2,55.7,30.09,West,274,1.0,1.0,69,0.00,,,0.00,Wunderground v.1.15,2013-05-15 13:30:00,
2013-05-15 09:35:00,66.8,55.9,30.09,West,260,1.0,1.0,68,0.00,,,0.00,Wunderground v.1.15,2013-05-15 13:35:00,
2013-05-15 09:40:00,67.3,56.0,30.08,West,267,1.0,1.0,67,0.00,,,0.00,Wunderground v.1.15,2013-05-15 13:40:00,
2013-05-15 09:45:00,67.9,56.5,30.08,WSW,256,1.0,1.0,67,0.00,,,0.00,Wunderground v.1.15,2013-05-15 13:45:00,
2013-05-15 09:50:00,68.5,56.7,30.08,West,267,1.0,1.0,66,0.00,,,0.00,Wunderground v.1.15,2013-05-15 13:50:00,
2013-05-15 09:55:00,69.0,56.3,30.08,West,259,1.0,1.0,64,0.00,,,0.00,Wunderground v.1.15,2013-05-15 13:55:00,
2013-05-15 10:00:00,69.6,56.4,30.07,WSW,252,1.0,1.0,63,0.00,,,0.00,Wunderground v.1.15,2013-05-15 14:00:00,
2013-05-15 10:05:00,70.3,56.7,30.07,WSW,242,1.0,2.0,62,0.00,,,0.00,Wunderground v.1.15,2013-05-15 14:05:00,
2013-05-15 10:10:00,71.0,57.3,30.07,SSW,211,1.0,1.0,62,0.00,,,0.00,Wunderground v.1.15,2013-05-15 14:10:00,
2013-05-15 10:20:00,72.6,56.5,30.07,WSW,254,1.0,1.0,57,0.00,,,0.00,Wunderground v.1.15,2013-05-15 14:20:00,
2013-05-15 10:25:00,73.2,56.6,30.07,WSW,257,1.0,1.0,56,0.00,,,0.00,Wunderground v.1.15,2013-05-15 14:25:00,
2013-05-15 10:30:00,73.5,56.8,30.06,WSW,241,1.0,1.0,56,0.00,,,0.00,Wunderground v.1.15,2013-05-15 14:30:00,
2013-05-15 10:35:00,74.1,57.4,30.06,WSW,243,1.0,2.0,56,0.00,,,0.00,Wunderground v.1.15,2013-05-15 14:35:00,
2013-05-15 10:40:00,74.5,55.7,30.06,SW,229,1.0,1.0,52,0.00,,,0.00,Wunderground v.1.15,2013-05-15 14:40:00,
2013-05-15 10:45:00,74.8,55.5,30.06,WSW,245,2.0,2.0,51,0.00,,,0.00,Wunderground v.1.15,2013-05-15 14:45:00,
2013-05-15 10:50:00,75.1,55.7,30.06,West,274,2.0,2.0,51,0.00,,,0.00,Wunderground v.1.15,2013-05-15 14:50:00,
2013-05-15 10:55:00,75.6,55.6,30.06,SW,232,2.0,2.0,50,0.00,,,0.00,Wunderground v.1.15,2013-05-15 14:55:00,
2013-05-15 11:05:00,76.0,56.0,30.06,WSW,239,2.0,2.0,50,0.00,,,0.00,Wunderground v.1.15,2013-05-15 15:05:00,
2013-05-15 11:10:00,76.4,56.4,30.06,SW,215,2.0,2.0,50,0.00,,,0.00,Wunderground v.1.15,2013-05-15 15:10:00,
2013-05-15 11:15:00,76.5,56.5,30.06,WSW,246,2.0,2.0,50,0.00,,,0.00,Wunderground v.1.15,2013-05-15 15:15:00,
2013-05-15 11:20:00,76.5,55.9,30.06,West,259,2.0,2.0,49,0.00,,,0.00,Wunderground v.1.15,2013-05-15 15:20:00,
2013-05-15 11:25:00,76.6,56.0,30.06,SSW,194,2.0,2.0,49,0.00,,,0.00,Wunderground v.1.15,2013-05-15 15:25:00,
2013-05-15 11:30:00,76.8,56.2,30.06,SW,222,2.0,2.0,49,0.00,,,0.00,Wunderground v.1.15,2013-05-15 15:30:00,
2013-05-15 11:35:00,77.4,56.7,30.06,SW,231,2.0,2.0,49,0.00,,,0.00,Wunderground v.1.15,2013-05-15 15:35:00,
2013-05-15 11:40:00,77.6,56.4,30.06,SE,142,2.0,2.0,48,0.00,,,0.00,Wunderground v.1.15,2013-05-15 15:40:00,
2013-05-15 11:45:00,78.0,57.3,30.05,SW,236,2.0,2.0,49,0.00,,,0.00,Wunderground v.1.15,2013-05-15 15:45:00,
2013-05-15 11:50:00,78.1,56.8,30.05,SSW,210,2.0,2.0,48,0.00,,,0.00,Wunderground v.1.15,2013-05-15 15:50:00,
2013-05-15 11:55:00,78.5,56.6,30.04,SSW,212,2.0,2.0,47,0.00,,,0.00,Wunderground v.1.15,2013-05-15 15:55:00,
2013-05-15 12:00:00,78.7,56.8,30.04,WSW,238,2.0,3.0,47,0.00,,,0.00,Wunderground v.1.15,2013-05-15 16:00:00,
2013-05-15 12:10:00,78.5,56.6,30.04,WSW,238,2.0,2.0,47,0.00,,,0.00,Wunderground v.1.15,2013-05-15 16:10:00,
2013-05-15 12:20:00,78.8,56.3,30.04,South,184,2.0,2.0,46,0.00,,,0.00,Wunderground v.1.15,2013-05-15 16:20:00,
2013-05-15 12:25:00,79.1,57.7,30.04,SSW,207,2.0,2.0,48,0.00,,,0.00,Wunderground v.1.15,2013-05-15 16:25:00,
2013-05-15 12:40:00,80.6,57.9,30.03,SW,236,2.0,2.0,46,0.00,,,0.00,Wunderground v.1.15,2013-05-15 16:40:00,
2013-05-15 12:45:00,80.8,58.7,30.03,SW,232,2.0,2.0,47,0.00,,,0.00,Wunderground v.1.15,2013-05-15 16:45:00,
2013-05-15 12:50:00,81.2,57.2,30.03,WSW,248,1.0,1.0,44,0.00,,,0.00,Wunderground v.1.15,2013-05-15 16:50:00,
2013-05-15 12:55:00,81.6,57.6,30.02,West,267,1.0,2.0,44,0.00,,,0.00,Wunderground v.1.15,2013-05-15 16:55:00,
2013-05-15 13:00:00,81.4,56.8,30.02,SW,236,2.0,2.0,43,0.00,,,0.00,Wunderground v.1.15,2013-05-15 17:00:00,
2013-05-15 13:15:00,81.4,56.1,30.02,SW,233,2.0,2.0,42,0.00,,,0.00,Wunderground v.1.15,2013-05-15 17:15:00,
2013-05-15 13:20:00,81.4,56.8,30.02,South,169,2.0,2.0,43,0.00,,,0.00,Wunderground v.1.15,2013-05-15 17:20:00,
2013-05-15 13:25:00,81.4,56.8,30.02,WSW,238,2.0,3.0,43,0.00,,,0.00,Wunderground v.1.15,2013-05-15 17:25:00,
2013-05-15 13:30:00,81.2,55.3,30.01,SW,233,2.0,2.0,41,0.00,,,0.00,Wunderground v.1.15,2013-05-15 17:30:00,
2013-05-15 13:35:00,81.6,57.6,30.01,WSW,238,2.0,2.0,44,0.00,,,0.00,Wunderground v.1.15,2013-05-15 17:35:00,
2013-05-15 13:45:00,82.0,56.0,30.00,WSW,252,2.0,3.0,41,0.00,,,0.00,Wunderground v.1.15,2013-05-15 17:45:00,
2013-05-15 13:50:00,82.1,56.7,30.00,South,186,2.0,2.0,42,0.00,,,0.00,Wunderground v.1.15,2013-05-15 17:50:00,
2013-05-15 14:00:00,82.4,56.3,30.00,SW,221,2.0,2.0,41,0.00,,,0.00,Wunderground v.1.15,2013-05-15 18:00:00,
2013-05-15 14:05:00,82.7,55.9,30.00,SSE,155,2.0,3.0,40,0.00,,,0.00,Wunderground v.1.15,2013-05-15 18:05:00,
2013-05-15 14:10:00,82.8,56.7,29.99,WSW,249,1.0,1.0,41,0.00,,,0.00,Wunderground v.1.15,2013-05-15 18:10:00,
2013-05-15 14:15:00,83.0,55.5,29.99,SSW,199,2.0,2.0,39,0.00,,,0.00,Wunderground v.1.15,2013-05-15 18:15:00,
2013-05-15 14:20:00,83.2,56.4,29.98,SW,222,2.0,2.0,40,0.00,,,0.00,Wunderground v.1.15,2013-05-15 18:20:00,
2013-05-15 14:25:00,83.3,57.1,29.99,SSW,212,2.0,2.0,41,0.00,,,0.00,Wunderground v.1.15,2013-05-15 18:25:00,
2013-05-15 14:30:00,83.6,55.3,29.99,WSW,244,1.0,1.0,38,0.00,,,0.00,Wunderground v.1.15,2013-05-15 18:30:00,
2013-05-15 14:35:00,83.5,55.2,29.98,SW,227,1.0,1.0,38,0.00,,,0.00,Wunderground v.1.15,2013-05-15 18:35:00,
2013-05-15 14:45:00,83.2,56.4,29.98,SW,224,2.0,2.0,40,0.00,,,0.00,Wunderground v.1.15,2013-05-15 18:45:00,
2013-05-15 14:50:00,83.2,55.0,29.98,SW,217,2.0,2.0,38,0.00,,,0.00,Wunderground v.1.15,2013-05-15 18:50:00,
2013-05-15 14:55:00,83.3,55.0,29.98,West,259,2.0,2.0,38,0.00,,,0.00,Wunderground v.1.15,2013-05-15 18:55:00,
2013-05-15 15:05:00,83.4,55.1,29.98,SSE,163,1.0,2.0,38,0.00,,,0.00,Wunderground v.1.15,2013-05-15 19:05:00,
2013-05-15 15:10:00,83.5,54.5,29.98,South,186,1.0,2.0,37,0.00,,,0.00,Wunderground v.1.15,2013-05-15 19:10:00,
2013-05-15 15:15:00,83.6,55.3,29.97,West,273,1.0,2.0,38,0.00,,,0.00,Wunderground v.1.15,2013-05-15 19:15:00,
2013-05-15 15:20:00,83.4,55.1,29.97,SE,136,2.0,2.0,38,0.00,,,0.00,Wunderground v.1.15,2013-05-15 19:20:00,
2013-05-15 15:30:00,83.6,55.3,29.97,WSW,245,2.0,2.0,38,0.00,,,0.00,Wunderground v.1.15,2013-05-15 19:30:00,
2013-05-15 15:35:00,83.4,54.4,29.97,SSW,212,1.0,2.0,37,0.00,,,0.00,Wunderground v.1.15,2013-05-15 19:35:00,
2013-05-15 15:40:00,83.2,54.2,29.97,SSE,153,1.0,1.0,37,0.00,,,0.00,Wunderground v.1.15,2013-05-15 19:40:00,
2013-05-15 15:45:00,83.0,53.3,29.96,WSW,238,1.0,1.0,36,0.00,,,0.00,Wunderground v.1.15,2013-05-15 19:45:00,
2013-05-15 15:50:00,82.7,54.5,29.97,SE,142,1.0,2.0,38,0.00,,,0.00,Wunderground v.1.15,2013-05-15 19:50:00,
2013-05-15 15:55:00,82.7,53.8,29.96,South,191,1.0,2.0,37,0.00,,,0.00,Wunderground v.1.15,2013-05-15 19:55:00,
2013-05-15 16:00:00,82.8,55.3,29.96,WSW,253,1.0,1.0,39,0.00,,,0.00,Wunderground v.1.15,2013-05-15 20:00:00,
2013-05-15 16:10:00,82.7,54.5,29.95,WSW,238,1.0,1.0,38,0.00,,,0.00,Wunderground v.1.15,2013-05-15 20:10:00,
2013-05-15 16:15:00,82.4,54.2,29.95,SW,221,2.0,2.0,38,0.00,,,0.00,Wunderground v.1.15,2013-05-15 20:15:00,
2013-05-15 16:20:00,82.3,54.2,29.95,WSW,242,2.0,2.0,38,0.00,,,0.00,Wunderground v.1.15,2013-05-15 20:20:00,
2013-05-15 16:25:00,82.1,54.0,29.95,SSE,162,1.0,2.0,38,0.00,,,0.00,Wunderground v.1.15,2013-05-15 20:25:00,
2013-05-15 16:30:00,81.7,52.1,29.95,SW,233,1.0,2.0,36,0.00,,,0.00,Wunderground v.1.15,2013-05-15 20:30:00,
2013-05-15 16:35:00,81.0,52.3,29.95,SW,226,2.0,2.0,37,0.00,,,0.00,Wunderground v.1.15,2013-05-15 20:35:00,
2013-05-15 16:40:00,80.3,52.4,29.95,SW,233,2.0,2.0,38,0.00,,,0.00,Wunderground v.1.15,2013-05-15 20:40:00,
2013-05-15 16:45:00,79.7,51.8,29.95,South,174,2.0,2.0,38,0.00,,,0.00,Wunderground v.1.15,2013-05-15 20:45:00,
2013-05-15 16:55:00,80.1,52.2,29.94,SW,231,1.0,3.0,38,0.00,,,0.00,Wunderground v.1.15,2013-05-15 20:55:00,
2013-05-15 17:00:00,80.4,52.5,29.94,WSW,250,2.0,2.0,38,0.00,,,0.00,Wunderground v.1.15,2013-05-15 21:00:00,
2013-05-15 17:10:00,80.5,53.3,29.94,SW,215,1.0,1.0,39,0.00,,,0.00,Wunderground v.1.15,2013-05-15 21:10:00,
2013-05-15 17:15:00,80.4,51.7,29.94,WSW,249,1.0,1.0,37,0.00,,,0.00,Wunderground v.1.15,2013-05-15 21:15:00,
2013-05-15 17:20:00,80.2,53.7,29.94,SW,235,1.0,1.0,40,0.00,,,0.00,Wunderground v.1.15,2013-05-15 21:20:00,
2013-05-15 17:30:00,79.7,51.8,29.94,SW,229,1.0,2.0,38,0.00,,,0.00,Wunderground v.1.15,2013-05-15 21:30:00,
2013-05-15 17:35:00,79.3,52.2,29.94,South,173,1.0,2.0,39,0.00,,,0.00,Wunderground v.1.15,2013-05-15 21:35:00,
2013-05-15 17:40:00,79.1,52.7,29.93,SW,228,1.0,1.0,40,0.00,,,0.00,Wunderground v.1.15,2013-05-15 21:40:00,
2013-05-15 17:50:00,78.6,52.9,29.93,SW,230,1.0,1.0,41,0.00,,,0.00,Wunderground v.1.15,2013-05-15 21:50:00,
2013-05-15 17:55:00,78.4,53.4,29.93,SW,233,1.0,1.0,42,0.00,,,0.00,Wunderground v.1.15,2013-05-15 21:55:00,
2013-05-15 18:00:00,78.4,52.1,29.93,WSW,252,1.0,2.0,40,0.00,,,0.00,Wunderground v.1.15,2013-05-15 22:00:00,
2013-05-15 18:05:00,78.4,54.0,29.93,SW,226,1.0,2.0,43,0.00,,,0.00,Wunderground v.1.15,2013-05-15 22:05:00,
2013-05-15 18:10:00,78.1,54.4,29.93,West,263,1.0,2.0,44,0.00,,,0.00,Wunderground v.1.15,2013-05-15 22:10:00,
2013-05-15 18:15:00,77.6,53.3,29.93,SW,217,1.0,2.0,43,0.00,,,0.00,Wunderground v.1.15,2013-05-15 22:15:00,
2013-05-15 18:25:00,77.0,52.8,29.93,WSW,252,1.0,1.0,43,0.00,,,0.00,Wunderground v.1.15,2013-05-15 22:25:00,
2013-05-15 18:30:00,76.9,52.7,29.93,SW,232,1.0,1.0,43,0.00,,,0.00,Wunderground v.1.15,2013-05-15 22:30:00,
2013-05-15 18:35:00,76.9,53.9,29.93,WSW,242,1.0,1.0,45,0.00,,,0.00,Wunderground v.1.15,2013-05-15 22:35:00,
2013-05-15 18:40:00,76.5,51.7,29.93,WSW,241,1.0,1.0,42,0.00,,,0.00,Wunderground v.1.15,2013-05-15 22:40:00,
2013-05-15 18:45:00,76.3,54.0,29.93,WSW,242,1.0,1.0,46,0.00,,,0.00,Wunderground v.1.15,2013-05-15 22:45:00,
2013-05-15 18:50:00,75.8,53.5,29.92,West,273,1.0,1.0,46,0.00,,,0.00,Wunderground v.1.15,2013-05-15 22:50:00,
2013-05-15 19:00:00,75.0,54.5,29.92,West,267,1.0,1.0,49,0.00,,,0.00,Wunderground v.1.15,2013-05-15 23:00:00,
2013-05-15 19:05:00,74.6,54.2,29.92,West,269,1.0,1.0,49,0.00,,,0.00,Wunderground v.1.15,2013-05-15 23:05:00,
2013-05-15 19:10:00,74.3,53.9,29.93,West,266,1.0,1.0,49,0.00,,,0.00,Wunderground v.1.15,2013-05-15 23:10:00,
2013-05-15 19:15:00,74.0,54.2,29.93,West,266,0.0,1.0,50,0.00,,,0.00,Wunderground v.1.15,2013-05-15 23:15:00,
2013-05-15 19:20:00,73.7,53.9,29.93,West,266,0.0,0.0,50,0.00,,,0.00,Wunderground v.1.15,2013-05-15 23:20:00,
2013-05-15 19:25:00,73.4,53.1,29.93,West,267,0.0,0.0,49,0.00,,,0.00,Wunderground v.1.15,2013-05-15 23:25:00,
2013-05-15 19:35:00,72.7,53.0,29.93,West,266,0.0,0.0,50,0.00,,,0.00,Wunderground v.1.15,2013-05-15 23:35:00,
2013-05-15 19:40:00,72.4,53.8,29.93,West,266,0.0,1.0,52,0.00,,,0.00,Wunderground v.1.15,2013-05-15 23:40:00,
2013-05-15 19:45:00,72.0,53.4,29.93,West,266,0.0,1.0,52,0.00,,,0.00,Wunderground v.1.15,2013-05-15 23:45:00,
2013-05-15 19:55:00,71.4,52.9,29.93,West,266,0.0,0.0,52,0.00,,,0.00,Wunderground v.1.15,2013-05-15 23:55:00,
2013-05-15 20:00:00,71.2,52.7,29.93,SW,229,0.0,0.0,52,0.00,,,0.00,Wunderground v.1.15,2013-05-16 00:00:00,
2013-05-15 20:05:00,70.9,52.4,29.93,WSW,246,0.0,0.0,52,0.00,,,0.00,Wunderground v.1.15,2013-05-16 00:05:00,
2013-05-15 20:10:00,70.6,52.6,29.93,WSW,246,0.0,0.0,53,0.00,,,0.00,Wunderground v.1.15,2013-05-16 00:10:00,
2013-05-15 20:15:00,70.3,52.4,29.93,WSW,246,0.0,0.0,53,0.00,,,0.00,Wunderground v.1.15,2013-05-16 00:15:00,
2013-05-15 20:20:00,70.0,52.6,29.94,WSW,246,0.0,0.0,54,0.00,,,0.00,Wunderground v.1.15,2013-05-16 00:20:00,
2013-05-15 20:25:00,69.7,52.3,29.93,WSW,245,0.0,0.0,54,0.00,,,0.00,Wunderground v.1.15,2013-05-16 00:25:00,
2013-05-15 20:30:00,69.4,52.0,29.93,WSW,257,0.0,1.0,54,0.00,,,0.00,Wunderground v.1.15,2013-05-16 00:30:00,
2013-05-15 20:35:00,69.2,51.8,29.93,NW,325,0.0,1.0,54,0.00,,,0.00,Wunderground v.1.15,2013-05-16 00:35:00,
2013-05-15 20:40:00,68.9,51.6,29.93,NW,323,0.0,0.0,54,0.00,,,0.00,Wunderground v.1.15,2013-05-16 00:40:00,
2013-05-15 20:50:00,68.6,51.3,29.94,NNW,329,0.0,0.0,54,0.00,,,0.00,Wunderground v.1.15,2013-05-16 00:50:00,
2013-05-15 21:00:00,68.4,51.6,29.94,NNW,329,0.0,0.0,55,0.00,,,0.00,Wunderground v.1.15,2013-05-16 01:00:00,
2013-05-15 21:05:00,68.2,51.4,29.94,NNW,329,0.0,0.0,55,0.00,,,0.00,Wunderground v.1.15,2013-05-16 01:05:00,
2013-05-15 21:10:00,67.9,51.1,29.94,NNW,329,0.0,0.0,55,0.00,,,0.00,Wunderground v.1.15,2013-05-16 01:10:00,
2013-05-15 21:15:00,67.7,51.4,29.94,NNW,329,0.0,0.0,56,0.00,,,0.00,Wunderground v.1.15,2013-05-16 01:15:00,